User: anonymous   Login
Location: Unspecified
(0.0000°N, 0.0000°E)
Time: 01:16:14
(UTC+00:00)
Language:

JAS-1B - Orbit

View from above orbital plane
View from above orbital plane
View from above satellite
View from above satellite

Ground track
Ground track

The orbit data is extracted from the following two-line orbital elements,

1 20480U 90013C   24201.57791017 -.00000021  00000-0  35058-4 0  9992
2 20480  99.0386 244.9386 0539330 285.5792  68.6421 12.83459996613843
Epoch (UTC): 19 July 2024 13:52:11
Eccentricity: 0.0539330
inclination: 99.0386°
perigee height: 912 km
apogee height: 1743 km
right ascension of ascending node: 244.9386°
argument of perigee: 285.5792°
revolutions per day: 12.83459996
mean anomaly at epoch: 68.6421°
orbit number at epoch: 61384

The dashed part of the orbit path shows where the satellite is in the earth's shadow,  

DLR